Location: Acton
(51.4942°N, 0.2232°W)
Time: 13:36:43
(UTC+00:00)

Okean 1-7 Rocket - Pass Details

Date: 23 January 2021
Orbit: 615 x 650 km, 82.5° (Epoch: 28 February)

Event Time Altitude Azimuth Distance (km) Brightness Sun altitude
Rises 17:02:45 0° 152° (SSE) 2,951 7.0 -4.7°
Reaches altitude 10° 17:05:21 10° 138° (SE) 2,050 6.1 -5.0°
Maximum altitude 17:08:55 23° 86° (E) 1,379 4.8 -5.5°
Drops below altitude 10° 17:12:31 10° 35° (NE) 2,067 5.7 -6.0°
Sets 17:15:08 0° 21° (NNE) 2,983 6.6 -6.4°
